Location: City of Howard
(37.4695°N, 96.2632°W)
Time: 11:11:54
(UTC+00:00)

Daily predictions for brighter satellites

Satellite Brightness Start Highest point End
(mag) Time Altitude Azimuth Time Altitude Azimuth Time Altitude Azimuth
Cosmos 2084 3.6 12:01:08 13° SW 12:04:58 55° NW 12:09:24 10° NNE
Cosmos 1500 Rocket 4.1 12:02:14 10° NNW 12:06:14 34° W 12:10:11 10° SSW
Cosmos 1400 Rocket 3.1 12:03:03 10° S 12:07:01 73° E 12:11:05 10° NNE
Cosmos 1869 3.9 12:04:06 10° SW 12:07:43 33° WNW 12:11:20 10° NNW
H-2A R/B 3.9 12:04:33 10° NNW 12:07:52 21° WNW 12:09:12 19° W
STARLINK-1112 4.2 12:06:16 22° W 12:08:25 38° NW 12:12:16 10° NE
PAYLOAD B 4.2 12:02:55 10° NNE 12:08:32 84° WNW 12:14:03 10° SSW
Cosmos 2016 Rocket 4.1 12:04:50 10° N 12:11:07 85° E 12:17:27 10° S
METEOR-M 4.3 12:09:14 10° N 12:14:22 49° WNW 12:19:28 10° SW
Okean O Rocket 1.5 12:13:43 10° NNE 12:18:06 85° W 12:22:26 10° SSW
Cosmos 1151 Rocket 3.8 12:19:10 10° S 12:23:22 57° E 12:27:37 10° NNE
DMSP B5D1-3 4.5 12:23:36 10° S 12:28:40 81° WSW 12:33:47 10° NNW
Cosmos 1328 Rocket 4.0 12:24:33 10° S 12:28:57 70° E 12:33:24 10° NNE
Cosmos 1943 Rocket 3.1 12:25:47 10° NW 12:30:10 25° WSW 12:34:32 10° SSW
Cosmos 1633 3.3 12:28:23 10° NNW 12:31:37 30° W 12:34:49 10° SSW
H-2A R/B 2.9 12:28:47 10° NNE 12:32:31 76° E 12:36:13 10° S
USA 116 3.9 12:34:56 10° SSW 12:37:53 32° W 12:40:44 10° NNW
Cosmos 2173 Rocket 4.5 12:33:52 10° NNW 12:39:31 37° W 12:45:06 10° SSW
ISS -1.8 12:37:19 10° SSW 12:40:22 32° SE 12:43:26 10° ENE
Cosmos 921 Rocket 3.9 12:37:58 10° NW 12:41:44 28° W 12:45:25 10° SSW
Helios 1A Rocket 2.9 12:40:19 10° N 12:44:24 62° WNW 12:48:28 10° SSW
COSMO-SKYMED 1 3.9 12:41:32 10° SW 12:44:39 19° W 12:47:47 10° NW
Cosmos 1238 Rocket 4.0 12:39:45 10° NNW 12:45:15 42° W 12:49:52 10° SSW
